| time (UTC) | temp F | wind direction | speed MPH | gust MPH | rain 1hr in | rain 24hr in | rain mn in | humidity % | barometer mb |
| 20260508110518 | 63 | 0.0 | 1.0 | 0.00 | 0.00 | 0.00 | 39 | 1012.2 | |
| 20260508105518 | 63 | 127 | 0.0 | 1.0 | 0.00 | 0.00 | 0.00 | 39 | 1012.2 |
| 20260508104517 | 64 | 139 | 0.0 | 1.0 | 0.00 | 0.00 | 0.00 | 39 | 1012.0 |
| 20260508103516 | 64 | 139 | 0.0 | 1.0 | 0.00 | 0.00 | 0.00 | 39 | 1012.0 |
| 20260508102516 | 65 | 118 | 0.0 | 2.0 | 0.00 | 0.00 | 0.00 | 37 | 1012.0 |
| 20260508101517 | 66 | 136 | 0.0 | 1.0 | 0.00 | 0.00 | 0.00 | 35 | 1012.0 |
| 20260508100517 | 66 | 0.0 | 1.0 | 0.00 | 0.00 | 0.00 | 35 | 1012.0 | |
| 20260508095516 | 66 | 128 | 0.0 | 3.0 | 0.00 | 0.00 | 0.00 | 35 | 1012.0 |
| 20260508094516 | 66 | 132 | 0.0 | 2.0 | 0.00 | 0.00 | 0.00 | 37 | 1012.0 |
| 20260508093517 | 66 | 92 | 0.0 | 1.0 | 0.00 | 0.00 | 0.00 | 37 | 1012.0 |
| 20260508092516 | 67 | 78 | 0.0 | 2.0 | 0.00 | 0.00 | 0.00 | 37 | 1012.0 |
| 20260508091516 | 67 | 93 | 0.0 | 2.0 | 0.00 | 0.00 | 0.00 | 37 | 1012.0 |
| 20260508090517 | 67 | 0.0 | 0.0 | 0.00 | 0.00 | 0.00 | 37 | 1011.9 | |
| 20260508085537 | 67 | 180 | 0.0 | 2.0 | 0.00 | 0.00 | 0.00 | 36 | 1012.0 |
| 20260508084536 | 67 | 132 | 1.0 | 4.0 | 0.00 | 0.00 | 0.00 | 36 | 1012.0 |
| 20260508083517 | 68 | 146 | 2.0 | 5.0 | 0.00 | 0.00 | 0.00 | 36 | 1012.0 |
| 20260508082516 | 68 | 142 | 1.0 | 4.0 | 0.00 | 0.00 | 0.00 | 34 | 1012.1 |
| 20260508081517 | 68 | 140 | 1.0 | 4.0 | 0.00 | 0.00 | 0.00 | 34 | 1012.1 |
| 20260508080517 | 69 | 131 | 2.0 | 4.0 | 0.00 | 0.00 | 0.00 | 32 | 1012.2 |
| 20260508075517 | 69 | 146 | 1.0 | 3.0 | 0.00 | 0.00 | 0.00 | 31 | 1012.2 |
| 20260508074517 | 70 | 134 | 1.0 | 4.0 | 0.00 | 0.00 | 0.00 | 28 | 1012.1 |
| 20260508073538 | 70 | 141 | 2.0 | 6.0 | 0.00 | 0.00 | 0.00 | 24 | 1012.1 |
| 20260508072536 | 71 | 130 | 2.0 | 5.0 | 0.00 | 0.00 | 0.00 | 24 | 1012.2 |
| 20260508071516 | 71 | 133 | 2.0 | 5.0 | 0.00 | 0.00 | 0.00 | 20 | 1012.2 |
| 20260508070516 | 72 | 122 | 1.0 | 3.0 | 0.00 | 0.00 | 0.00 | 19 | 1012.2 |
| 20260508065558 | 72 | 129 | 1.0 | 3.0 | 0.00 | 0.00 | 0.00 | 19 | 1012.1 |
| 20260508064516 | 72 | 127 | 1.0 | 4.0 | 0.00 | 0.00 | 0.00 | 19 | 1012.0 |
| 20260508063542 | 73 | 135 | 1.0 | 5.0 | 0.00 | 0.00 | 0.00 | 19 | 1012.0 |
| 20260508062517 | 73 | 124 | 4.0 | 8.0 | 0.00 | 0.00 | 0.00 | 20 | 1012.0 |
| 20260508061516 | 74 | 130 | 0.0 | 1.0 | 0.00 | 0.00 | 0.00 | 22 | 1011.8 |
| 20260508060516 | 74 | 124 | 0.0 | 1.0 | 0.00 | 0.00 | 0.00 | 21 | 1011.7 |
| 20260508055517 | 74 | 125 | 0.0 | 1.0 | 0.00 | 0.00 | 0.00 | 20 | 1011.7 |
| 20260508054515 | 75 | 0.0 | 0.0 | 0.00 | 0.00 | 0.00 | 19 | 1011.8 | |
| 20260508053517 | 76 | 0.0 | 0.0 | 0.00 | 0.00 | 0.00 | 19 | 1011.7 | |
| 20260508052516 | 76 | 0.0 | 1.0 | 0.00 | 0.00 | 0.00 | 18 | 1011.7 | |
| 20260508051516 | 77 | 0.0 | 1.0 | 0.00 | 0.00 | 0.00 | 17 | 1011.6 | |
| 20260508050556 | 78 | 288 | 0.0 | 1.0 | 0.00 | 0.00 | 0.00 | 17 | 1011.5 |
| 20260508045517 | 80 | 0.0 | 0.0 | 0.00 | 0.00 | 0.00 | 15 | 1011.5 | |
| 20260508044516 | 81 | 0.0 | 0.0 | 0.00 | 0.00 | 0.00 | 13 | 1011.3 | |
| 20260508043515 | 83 | 0.0 | 0.0 | 0.00 | 0.00 | 0.00 | 12 | 1011.3 | |
| 20260508042516 | 84 | 293 | 0.0 | 2.0 | 0.00 | 0.00 | 0.00 | 11 | 1011.2 |
| 20260508041517 | 84 | 286 | 1.0 | 2.0 | 0.00 | 0.00 | 0.00 | 11 | 1011.0 |
| 20260508040515 | 84 | 263 | 0.0 | 2.0 | 0.00 | 0.00 | 0.00 | 12 | 1011.0 |
| 20260508035515 | 84 | 264 | 0.0 | 3.0 | 0.00 | 0.00 | 0.00 | 12 | 1010.8 |
| 20260508034537 | 84 | 265 | 1.0 | 4.0 | 0.00 | 0.00 | 0.00 | 12 | 1010.7 |
| 20260508033559 | 85 | 272 | 0.0 | 4.0 | 0.00 | 0.00 | 0.00 | 12 | 1010.5 |
| 20260508032517 | 85 | 261 | 1.0 | 4.0 | 0.00 | 0.00 | 0.00 | 11 | 1010.4 |
| 20260508031517 | 85 | 244 | 1.0 | 4.0 | 0.00 | 0.00 | 0.00 | 11 | 1010.3 |
| 20260508030519 | 85 | 232 | 0.0 | 1.0 | 0.00 | 0.00 | 0.00 | 11 | 1010.0 |
| 20260508025516 | 86 | 220 | 0.0 | 2.0 | 0.00 | 0.00 | 0.00 | 10 | 1009.8 |
| 20260508024544 | 87 | 233 | 0.0 | 2.0 | 0.00 | 0.00 | 0.00 | 10 | 1009.7 |
| 20260508023517 | 88 | 265 | 0.0 | 5.0 | 0.00 | 0.00 | 0.00 | 10 | 1009.5 |
| 20260508022516 | 88 | 255 | 1.0 | 5.0 | 0.00 | 0.00 | 0.00 | 10 | 1009.4 |
| 20260508021538 | 89 | 270 | 2.0 | 7.0 | 0.00 | 0.00 | 0.00 | 9 | 1009.4 |
| 20260508020516 | 90 | 274 | 3.0 | 8.0 | 0.00 | 0.00 | 0.00 | 9 | 1009.2 |
| 20260508015515 | 91 | 283 | 4.0 | 9.0 | 0.00 | 0.00 | 0.00 | 8 | 1009.1 |
| 20260508014516 | 92 | 278 | 3.0 | 8.0 | 0.00 | 0.00 | 0.00 | 8 | 1008.9 |
| 20260508013516 | 92 | 284 | 2.0 | 8.0 | 0.00 | 0.00 | 0.00 | 8 | 1008.9 |
| 20260508012517 | 92 | 287 | 5.0 | 11.0 | 0.00 | 0.00 | 0.00 | 8 | 1008.9 |
| 20260508011515 | 92 | 281 | 4.0 | 10.0 | 0.00 | 0.00 | 0.00 | 8 | 1008.8 |
| 20260508010520 | 93 | 295 | 5.0 | 8.0 | 0.00 | 0.00 | 0.00 | 8 | 1008.8 |
| 20260508005515 | 94 | 269 | 2.0 | 6.0 | 0.00 | 0.00 | 0.00 | 8 | 1008.7 |
| 20260508004515 | 94 | 274 | 4.0 | 11.0 | 0.00 | 0.00 | 0.00 | 8 | 1008.8 |
| 20260508003515 | 93 | 260 | 1.0 | 8.0 | 0.00 | 0.00 | 0.00 | 8 | 1008.9 |
| 20260508002515 | 93 | 309 | 2.0 | 9.0 | 0.00 | 0.00 | 0.00 | 9 | 1008.9 |
| 20260508001516 | 93 | 289 | 3.0 | 9.0 | 0.00 | 0.00 | 0.00 | 9 | 1008.9 |
| 20260508000536 | 93 | 290 | 1.0 | 4.0 | 0.00 | 0.00 | 0.00 | 9 | 1008.9 |
| 20260507235516 | 93 | 303 | 5.0 | 10.0 | 0.00 | 0.00 | 0.00 | 9 | 1009.0 |
| 20260507234535 | 93 | 305 | 3.0 | 8.0 | 0.00 | 0.00 | 0.00 | 9 | 1009.0 |
| 20260507233516 | 92 | 291 | 3.0 | 12.0 | 0.00 | 0.00 | 0.00 | 9 | 1009.1 |
| 20260507232515 | 93 | 296 | 4.0 | 12.0 | 0.00 | 0.00 | 0.00 | 9 | 1009.2 |
| 20260507231516 | 93 | 306 | 5.0 | 10.0 | 0.00 | 0.00 | 0.00 | 10 | 1009.2 |
| 20260507230540 | 93 | 302 | 4.0 | 8.0 | 0.00 | 0.00 | 0.00 | 9 | 1009.2 |
| 20260507225541 | 93 | 285 | 3.0 | 11.0 | 0.00 | 0.00 | 0.00 | 9 | 1009.4 |
| 20260507224515 | 93 | 330 | 3.0 | 10.0 | 0.00 | 0.00 | 0.00 | 10 | 1009.5 |
| 20260507223555 | 93 | 21 | 1.0 | 7.0 | 0.00 | 0.00 | 0.00 | 9 | 1009.6 |
| 20260507222536 | 93 | 314 | 2.0 | 11.0 | 0.00 | 0.00 | 0.00 | 10 | 1009.7 |
| 20260507221515 | 92 | 287 | 3.0 | 8.0 | 0.00 | 0.00 | 0.00 | 10 | 1009.8 |
| 20260507220516 | 94 | 301 | 5.0 | 9.0 | 0.00 | 0.00 | 0.00 | 10 | 1010.0 |
| 20260507215515 | 93 | 199 | 1.0 | 5.0 | 0.00 | 0.00 | 0.00 | 10 | 1010.0 |
| 20260507214515 | 93 | 274 | 3.0 | 11.0 | 0.00 | 0.00 | 0.00 | 10 | 1010.2 |
| 20260507213515 | 92 | 273 | 3.0 | 9.0 | 0.00 | 0.00 | 0.00 | 11 | 1010.3 |
| 20260507212515 | 93 | 292 | 4.0 | 9.0 | 0.00 | 0.00 | 0.00 | 11 | 1010.5 |
| 20260507211535 | 92 | 296 | 4.0 | 11.0 | 0.00 | 0.00 | 0.00 | 11 | 1010.6 |
| 20260507210515 | 91 | 292 | 2.0 | 9.0 | 0.00 | 0.00 | 0.00 | 11 | 1010.8 |
| 20260507205516 | 93 | 286 | 5.0 | 10.0 | 0.00 | 0.00 | 0.00 | 11 | 1010.9 |
| 20260507204515 | 91 | 310 | 3.0 | 9.0 | 0.00 | 0.00 | 0.00 | 12 | 1011.0 |
| 20260507203516 | 92 | 313 | 2.0 | 7.0 | 0.00 | 0.00 | 0.00 | 12 | 1011.2 |
| 20260507202515 | 92 | 312 | 2.0 | 6.0 | 0.00 | 0.00 | 0.00 | 11 | 1011.4 |
| 20260507201515 | 92 | 64 | 0.0 | 3.0 | 0.00 | 0.00 | 0.00 | 12 | 1011.6 |
| 20260507200536 | 92 | 289 | 2.0 | 5.0 | 0.00 | 0.00 | 0.00 | 11 | 1011.8 |
| 20260507195515 | 93 | 223 | 1.0 | 4.0 | 0.00 | 0.00 | 0.00 | 11 | 1011.9 |
| 20260507194516 | 91 | 227 | 2.0 | 7.0 | 0.00 | 0.00 | 0.00 | 12 | 1012.1 |
| 20260507193515 | 90 | 282 | 2.0 | 9.0 | 0.00 | 0.00 | 0.00 | 12 | 1012.2 |
| 20260507192516 | 89 | 292 | 3.0 | 8.0 | 0.00 | 0.00 | 0.00 | 13 | 1012.5 |
| 20260507191635 | 89 | 330 | 2.0 | 9.0 | 0.00 | 0.00 | 0.00 | 14 | 1012.6 |
| 20260507190556 | 88 | 324 | 1.0 | 5.0 | 0.00 | 0.00 | 0.00 | 13 | 1012.8 |
| 20260507185555 | 89 | 296 | 1.0 | 3.0 | 0.00 | 0.00 | 0.00 | 13 | 1013.0 |
| 20260507184515 | 88 | 133 | 1.0 | 5.0 | 0.00 | 0.00 | 0.00 | 14 | 1013.1 |
| 20260507183515 | 86 | 100 | 0.0 | 5.0 | 0.00 | 0.00 | 0.00 | 14 | 1013.2 |
| 20260507182556 | 86 | 330 | 1.0 | 7.0 | 0.00 | 0.00 | 0.00 | 15 | 1013.3 |
| 20260507181515 | 85 | 326 | 0.0 | 4.0 | 0.00 | 0.00 | 0.00 | 16 | 1013.4 |
| 20260507180535 | 85 | 338 | 1.0 | 6.0 | 0.00 | 0.00 | 0.00 | 16 | 1013.5 |
| 20260507175516 | 85 | 311 | 0.0 | 4.0 | 0.00 | 0.00 | 0.00 | 17 | 1013.6 |
| 20260507174535 | 85 | 331 | 1.0 | 5.0 | 0.00 | 0.00 | 0.00 | 18 | 1013.7 |
| 20260507173515 | 85 | 324 | 0.0 | 2.0 | 0.00 | 0.00 | 0.00 | 17 | 1013.9 |
| 20260507172516 | 85 | 130 | 1.0 | 4.0 | 0.00 | 0.00 | 0.00 | 18 | 1014.0 |
| 20260507171517 | 83 | 352 | 0.0 | 1.0 | 0.00 | 0.00 | 0.00 | 19 | 1014.0 |
| 20260507170517 | 83 | 334 | 0.0 | 2.0 | 0.00 | 0.00 | 0.00 | 20 | 1014.1 |
| 20260507165517 | 83 | 295 | 0.0 | 3.0 | 0.00 | 0.00 | 0.00 | 21 | 1014.1 |
| 20260507164517 | 82 | 339 | 0.0 | 1.0 | 0.00 | 0.00 | 0.00 | 22 | 1014.2 |
| 20260507163517 | 82 | 134 | 0.0 | 3.0 | 0.00 | 0.00 | 0.00 | 23 | 1014.3 |
| 20260507162517 | 80 | 156 | 0.0 | 2.0 | 0.00 | 0.00 | 0.00 | 25 | 1014.3 |
| 20260507161515 | 80 | 125 | 0.0 | 1.0 | 0.00 | 0.00 | 0.00 | 25 | 1014.4 |
| 20260507160517 | 78 | 161 | 0.0 | 2.0 | 0.00 | 0.00 | 0.00 | 26 | 1014.5 |
| 20260507155537 | 78 | 132 | 0.0 | 2.0 | 0.00 | 0.00 | 0.00 | 26 | 1014.5 |
| 20260507154516 | 77 | 132 | 0.0 | 2.0 | 0.00 | 0.00 | 0.00 | 26 | 1014.6 |
| 20260507153517 | 76 | 159 | 0.0 | 2.0 | 0.00 | 0.00 | 0.00 | 27 | 1014.7 |
| 20260507152517 | 74 | 0.0 | 3.0 | 0.00 | 0.00 | 0.00 | 29 | 1014.6 | |
| 20260507151518 | 73 | 125 | 1.0 | 3.0 | 0.00 | 0.00 | 0.00 | 29 | 1014.6 |
| 20260507150517 | 72 | 139 | 1.0 | 3.0 | 0.00 | 0.00 | 0.00 | 31 | 1014.6 |
| 20260507145517 | 70 | 143 | 1.0 | 3.0 | 0.00 | 0.00 | 0.00 | 32 | 1014.7 |
| 20260507144517 | 69 | 140 | 1.0 | 2.0 | 0.00 | 0.00 | 0.00 | 33 | 1014.7 |
| 20260507143536 | 68 | 130 | 1.0 | 3.0 | 0.00 | 0.00 | 0.00 | 34 | 1014.7 |
| 20260507142517 | 67 | 135 | 1.0 | 3.0 | 0.00 | 0.00 | 0.00 | 35 | 1014.7 |
| 20260507141517 | 65 | 128 | 1.0 | 3.0 | 0.00 | 0.00 | 0.00 | 36 | 1014.6 |
| 20260507140519 | 64 | 129 | 1.0 | 4.0 | 0.00 | 0.00 | 0.00 | 37 | 1014.6 |
| 20260507135517 | 63 | 132 | 1.0 | 3.0 | 0.00 | 0.00 | 0.00 | 38 | 1014.5 |
| 20260507134517 | 62 | 127 | 1.0 | 4.0 | 0.00 | 0.00 | 0.00 | 39 | 1014.3 |
| 20260507133517 | 61 | 132 | 2.0 | 5.0 | 0.00 | 0.00 | 0.00 | 40 | 1014.1 |
| 20260507132516 | 61 | 137 | 1.0 | 4.0 | 0.00 | 0.00 | 0.00 | 41 | 1014.0 |
| 20260507131517 | 60 | 131 | 2.0 | 4.0 | 0.00 | 0.00 | 0.00 | 42 | 1013.9 |
| 20260507130537 | 59 | 133 | 1.0 | 4.0 | 0.00 | 0.00 | 0.00 | 43 | 1013.8 |
| 20260507125516 | 58 | 135 | 0.0 | 2.0 | 0.00 | 0.00 | 0.00 | 43 | 1013.7 |
| 20260507124516 | 58 | 130 | 1.0 | 4.0 | 0.00 | 0.00 | 0.00 | 43 | 1013.8 |
| 20260507123516 | 59 | 131 | 0.0 | 3.0 | 0.00 | 0.00 | 0.00 | 44 | 1013.7 |
| 20260507122536 | 59 | 128 | 1.0 | 3.0 | 0.00 | 0.00 | 0.00 | 43 | 1013.7 |
| 20260507121536 | 59 | 133 | 1.0 | 4.0 | 0.00 | 0.00 | 0.00 | 43 | 1013.6 |
| 20260507120516 | 59 | 135 | 0.0 | 1.0 | 0.00 | 0.00 | 0.00 | 43 | 1013.7 |
| 20260507115536 | 59 | 128 | 1.0 | 3.0 | 0.00 | 0.00 | 0.00 | 42 | 1013.8 |
| 20260507114516 | 60 | 128 | 0.0 | 2.0 | 0.00 | 0.00 | 0.00 | 43 | 1013.7 |
| 20260507113517 | 59 | 133 | 1.0 | 2.0 | 0.00 | 0.00 | 0.00 | 43 | 1013.7 |
| 20260507112519 | 59 | 0.0 | 0.0 | 0.00 | 0.00 | 0.00 | 44 | 1013.7 | |
| 20260507111516 | 59 | 145 | 0.0 | 4.0 | 0.00 | 0.00 | 0.00 | 44 | 1013.7 |